[[{"header":{"parameterUnit":"m.s-1","parameterCategory":1,"la1":30.2991,"la2":30.254,"lo1":-89.0895,"lo2":-89.0444,"dy":0.0017,"dx":0.0017,"nx":28,"ny":28,"refTime":"2026-02-03T03:00:00:Z","depth":0,"parameterNumber":2,"parameterNumberName":"U-component_of_WINDS"},"data":[0,0,0,0,0,0,0,0,0,0,0,0,0,0,0,0,0,0,0,0,0,0,0,0,0,0,0,0,0,0,0,0,0,0,0,0,0,0,0,0,0,0,0,0,0,0,0,0,0,0,0,0,0,0,0,0,0,0,2.186,2.1861,0,2.193,2.1931,2.1932,2.1946,2.1945,2.1945,2.1944,2.2017,2.202,2.2022,0,0,0,0,0,0,0,0,0,0,0,0,0,2.1742,2.1744,2.186,2.1861,2.1862,2.193,2.1931,2.1932,2.1946,2.1945,2.1945,2.1944,2.2017,2.2019,2.2022,0,0,0,0,0,0,0,0,0,0,0,0,0,2.1801,2.1745,2.186,2.1877,2.1879,2.193,2.1931,2.1932,2.1946,2.1945,2.1945,2.1944,2.2016,2.2019,2.2023,2.2061,0,0,2.2034,2.2036,0,0,0,0,0,0,0,0,2.1797,2.1805,2.1874,2.1876,2.1879,2.1928,2.1916,2.1975,2.1946,2.1921,2.1944,2.1944,2.1989,2.1994,2.2009,2.2065,2.2068,2.2034,2.2036,2.2038,2.2039,0,0,0,0,0,0,0,2.1793,2.1802,2.1888,2.1875,2.1878,2.1882,2.189,2.1927,2.1958,2.1923,2.1924,2.1932,2.199,2.2006,2.2011,2.2069,2.2034,2.2037,2.204,2.2041,2.2162,2.2163,0,0,0,0,0,0,2.1786,2.1799,2.1886,2.189,2.1835,2.1885,2.1893,2.1913,2.1958,2.1964,2.1933,2.1933,2.2,2.2007,2.2014,2.2063,2.2038,2.2041,2.2044,2.2161,2.2162,2.2163,0,0,0,0,0,0,2.1783,2.1793,2.1883,2.1845,2.1856,2.1888,2.191,2.1915,2.1931,2.1965,2.1971,2.1943,2.1999,2.2009,2.205,2.2065,2.2043,2.2046,2.2159,2.2161,2.2162,2.216,0,0,0,0,0,0,2.178,2.1792,2.1806,2.1845,2.1858,2.1917,2.1911,2.1917,2.1937,2.1938,2.1977,2.1982,2.2,2.2044,2.2053,2.207,2.2049,2.2158,2.216,2.2162,2.2159,2.2161,2.2164,0,0,0,0,0,2.1776,2.1803,2.1807,2.1818,2.1876,2.1917,2.1925,2.1944,2.1938,2.1953,2.1976,2.1981,2.2062,2.2048,2.2059,2.2077,2.2157,2.216,2.2162,2.2158,2.2161,2.2164,0,0,0,0,0,0,2.1766,2.1808,2.1813,2.1854,2.1882,2.192,2.1939,2.1946,2.1977,2.1976,2.1999,2.2007,2.2047,2.2066,2.205,2.2117,2.211,2.2114,2.2103,2.2106,2.2109,2.2103,2.2052,0,0,0,0,0,2.1768,2.1797,2.1833,2.1866,2.1879,2.1907,2.1925,2.1938,2.1968,2.198,2.2005,2.2035,2.2067,2.2088,2.212,2.2162,2.2172,2.218,2.2182,2.2184,2.2187,2.2213,2.2217,2.217,2.217,2.217,0,0,2.1774,2.1801,2.1817,2.1864,2.1887,2.1918,2.1917,2.1949,2.1972,2.1985,2.2025,2.2045,2.208,2.2122,2.2142,2.2139,2.2203,2.2187,2.2188,2.2191,2.2216,2.222,2.2224,2.2172,2.2172,2.2171,0,0,2.1799,2.1822,2.1852,2.1876,2.1911,2.1929,2.1937,2.1974,2.1988,2.2029,2.204,2.2068,2.2123,2.2148,2.2168,2.2205,2.2212,2.2215,2.2227,2.2251,2.2255,2.2258,2.2272,2.2277,2.2218,2.2219,2.2219,0,2.1802,2.1847,2.1867,2.1899,2.192,2.1933,2.1965,2.1987,2.2031,2.2045,2.2041,2.2112,2.2136,2.2185,2.2195,2.221,2.222,2.221,2.2253,2.2256,2.226,2.2274,2.2279,2.2219,2.2219,2.2219,2.2219,0,2.1849,2.188,2.1901,2.1943,2.1966,2.1998,2.2023,2.2045,2.2056,2.2075,2.2118,2.2148,2.2186,2.2199,2.221,2.225,2.2248,2.2248,2.2241,2.2264,2.2277,2.2283,2.2219,2.2219,2.2219,2.2219,0,0,2.1868,2.1922,2.1929,2.1949,2.199,2.2016,2.2049,2.2086,2.2105,2.2136,2.2164,2.2212,2.2213,2.2235,2.225,2.2271,2.23,2.2269,2.2271,2.2274,2.2348,2.2347,2.2353,2.2305,2.2306,2.2307,2.2345,0,2.1899,2.1957,2.1977,2.2026,2.2056,2.2071,2.21,2.2129,2.2148,2.2178,2.22,2.2233,2.2232,2.2246,2.2268,2.2292,2.2315,2.229,2.2333,2.2334,2.2323,2.236,2.2359,2.2393,2.2351,2.2352,2.2352,0,2.1942,2.1973,2.2025,2.2064,2.2077,2.2103,2.214,2.2167,2.2201,2.2214,2.224,2.2253,2.229,2.2281,2.2333,2.2315,2.2334,2.2349,2.2351,2.2355,2.2344,2.2365,2.2404,2.241,2.236,2.236,2.2359,0,2.1951,2.2007,2.2045,2.2062,2.2108,2.2126,2.2146,2.2179,2.2201,2.2234,2.2249,2.2286,2.2306,2.2335,2.2358,2.2349,2.2408,2.24,2.242,2.242,2.2431,2.243,2.2474,2.2444,2.2444,2.2444,2.2444,0,2.1983,2.2014,2.205,2.2074,2.211,2.2133,2.2169,2.219,2.222,2.2249,2.2264,2.2291,2.232,2.2352,2.237,2.2411,2.242,2.2432,2.2436,2.243,2.2429,2.2443,2.2441,2.2445,2.2445,2.2444,2.2444,0,2.1999,2.2024,2.2068,2.2108,2.2119,2.2144,2.2179,2.2204,2.2225,2.2261,2.2271,2.2304,2.2342,2.2368,2.2417,2.243,2.2474,2.2478,2.2462,2.2464,2.2482,2.248,2.2537,2.2546,2.251,2.251,2.251,0,2.2018,2.2042,2.2086,2.2106,2.2126,2.2159,2.2182,2.2206,2.223,2.2272,2.2291,2.233,2.2362,2.2423,2.2452,2.249,2.2495,2.2512,2.2501,2.2494,2.2496,2.2494,2.2497,2.2514,2.2514,2.2514,2.2514,0,2.2048,2.206,2.2092,2.2128,2.2155,2.2185,2.2216,2.2232,2.2263,2.2288,2.2327,2.2352,2.2403,2.2442,2.2483,2.2505,2.2515,2.2518,2.2525,2.2518,2.2508,2.2515,2.2467,2.2516,2.2516,2.2516,2.2516,2.2516,2.2066,2.2089,2.2124,2.2159,2.2185,2.2214,2.2239,2.2263,2.2296,2.2338,2.2352,2.2392,2.2428,2.2484,2.2507,2.254,2.2539,2.2548,2.2551,2.2553,2.2553,2.2503,2.2548,2.2548,2.2548,2.2548,2.2548,0,2.2098,2.2121,2.2154,2.2196,2.2224,2.2232,2.2267,2.229,2.2325,2.2357,2.2389,2.2435,2.2474,2.2506,2.2546,2.2567,2.2573,2.2576,2.2575,2.258,2.2551,2.2542,2.2571,2.2571,2.2571,2.2571,2.2571,2.2571,2.2117,2.2157,2.2173,2.2226,2.225,2.2289,2.2309,2.2336,2.2362,2.2412,2.2444,2.2465,2.2498,2.2541,2.2577,2.2586,2.26,2.2603,2.2613,2.2585,2.2582,2.258,2.2571,2.2606,2.2606,2.2639,2.2639,2.264]},{"header":{"parameterUnit":"m.s-1","parameterCategory":1,"la1":30.2991,"la2":30.254,"lo1":-89.0895,"lo2":-89.0444,"dy":0.0017,"dx":0.0017,"nx":28,"ny":28,"refTime":"2026-02-03T03:00:00:Z","depth":0,"parameterNumber":3,"parameterNumberName":"V-component_of_WINDS"},"data":[0,0,0,0,0,0,0,0,0,0,0,0,0,0,0,0,0,0,0,0,0,0,0,0,0,0,0,0,0,0,0,0,0,0,0,0,0,0,0,0,0,0,0,0,0,0,0,0,0,0,0,0,0,0,0,0,0,0,-7.3493,-7.3495,0,-7.365,-7.3652,-7.3654,-7.366,-7.3659,-7.3657,-7.3655,-7.3807,-7.3813,-7.3819,0,0,0,0,0,0,0,0,0,0,0,0,0,-7.3193,-7.3198,-7.3493,-7.3495,-7.3497,-7.365,-7.3652,-7.3654,-7.3661,-7.3659,-7.3656,-7.3654,-7.3805,-7.3812,-7.3819,0,0,0,0,0,0,0,0,0,0,0,0,0,-7.3334,-7.32,-7.3492,-7.3519,-7.3523,-7.365,-7.3652,-7.3655,-7.3661,-7.3658,-7.3656,-7.3653,-7.3803,-7.3812,-7.382,-7.3929,0,0,-7.3847,-7.385,0,0,0,0,0,0,0,0,-7.3326,-7.3345,-7.3513,-7.3517,-7.3522,-7.3633,-7.3602,-7.3746,-7.3662,-7.3608,-7.3655,-7.3652,-7.3751,-7.3764,-7.3799,-7.3936,-7.3943,-7.3847,-7.3853,-7.3856,-7.3859,0,0,0,0,0,0,0,-7.3316,-7.3338,-7.3555,-7.3515,-7.3521,-7.3521,-7.3538,-7.363,-7.3693,-7.3613,-7.3614,-7.3633,-7.3753,-7.3791,-7.3803,-7.3945,-7.3847,-7.3855,-7.386,-7.3864,-7.4183,-7.4186,0,0,0,0,0,0,-7.3302,-7.333,-7.355,-7.3559,-7.3415,-7.3529,-7.3548,-7.36,-7.3692,-7.3704,-7.3635,-7.3632,-7.3777,-7.3793,-7.3808,-7.3944,-7.3856,-7.3864,-7.3869,-7.418,-7.4184,-7.4187,0,0,0,0,0,0,-7.3295,-7.3321,-7.3543,-7.3445,-7.3473,-7.3537,-7.3595,-7.3605,-7.3643,-7.3709,-7.3719,-7.3662,-7.3776,-7.3796,-7.39,-7.3949,-7.3868,-7.3876,-7.4176,-7.4181,-7.4185,-7.4215,0,0,0,0,0,0,-7.3287,-7.3319,-7.3362,-7.3446,-7.3479,-7.3635,-7.3599,-7.361,-7.3659,-7.3657,-7.3737,-7.3748,-7.3775,-7.3888,-7.3909,-7.396,-7.3883,-7.4172,-7.4178,-7.4184,-7.421,-7.422,-7.4229,0,0,0,0,0,-7.3276,-7.3361,-7.3364,-7.339,-7.3534,-7.3637,-7.3656,-7.3688,-7.3662,-7.3706,-7.3749,-7.3745,-7.3941,-7.3898,-7.3922,-7.3976,-7.4169,-7.4176,-7.4183,-7.4206,-7.4218,-7.4229,0,0,0,0,0,0,-7.3276,-7.3372,-7.3376,-7.3492,-7.3557,-7.3638,-7.3693,-7.37,-7.3771,-7.3766,-7.38,-7.3818,-7.3922,-7.396,-7.391,-7.4089,-7.4052,-7.4064,-7.406,-7.4073,-7.4082,-7.4071,-7.389,0,0,0,0,0,-7.3291,-7.3369,-7.3448,-7.3541,-7.3575,-7.3629,-7.3675,-7.3695,-7.3762,-7.3789,-7.3839,-7.3903,-7.3979,-7.4028,-7.4101,-7.4216,-7.4234,-7.4266,-7.4275,-7.4283,-7.4293,-7.4359,-7.4375,-7.4211,-7.4211,-7.4211,0,0,-7.3319,-7.3381,-7.3428,-7.3543,-7.3596,-7.3676,-7.3651,-7.3735,-7.3794,-7.38,-7.3904,-7.3944,-7.4017,-7.4128,-7.4179,-7.4162,-7.4343,-7.4292,-7.4298,-7.4304,-7.4368,-7.4384,-7.4398,-7.4216,-7.4216,-7.4215,0,0,-7.3412,-7.3467,-7.3553,-7.3608,-7.369,-7.3727,-7.3747,-7.383,-7.3858,-7.3963,-7.3971,-7.404,-7.417,-7.4223,-7.4267,-7.4387,-7.4386,-7.4409,-7.4459,-7.4523,-7.4536,-7.4548,-7.4592,-7.4607,-7.4419,-7.4419,-7.4419,0,-7.3436,-7.3558,-7.3595,-7.3682,-7.3733,-7.3747,-7.3835,-7.3885,-7.3985,-7.402,-7.4001,-7.4168,-7.4217,-7.4343,-7.4373,-7.4407,-7.4432,-7.4399,-7.4532,-7.4544,-7.4555,-7.4598,-7.4614,-7.4422,-7.4421,-7.4421,-7.4421,0,-7.3585,-7.367,-7.3729,-7.3831,-7.3889,-7.3975,-7.4025,-7.4079,-7.4095,-7.4133,-7.4241,-7.4303,-7.4391,-7.4422,-7.4436,-7.4551,-7.4538,-7.4525,-7.4488,-7.4573,-7.4613,-7.4629,-7.4425,-7.4424,-7.4423,-7.4423,0,0,-7.3678,-7.3805,-7.3826,-7.3874,-7.3968,-7.4034,-7.4121,-7.4211,-7.4258,-7.4328,-7.4402,-7.4514,-7.4505,-7.4555,-7.4575,-7.4632,-7.4726,-7.4612,-7.4615,-7.4632,-7.4857,-7.4867,-7.4885,-7.4727,-7.473,-7.4733,-7.4852,0,-7.3782,-7.3941,-7.398,-7.4115,-7.4195,-7.4213,-7.4289,-7.4355,-7.4394,-7.4466,-7.4508,-7.4589,-7.4569,-7.46,-7.4657,-7.4702,-7.4771,-7.4694,-7.4795,-7.4799,-7.4777,-7.4906,-7.4915,-7.5024,-7.4868,-7.487,-7.4872,0,-7.3923,-7.4002,-7.4147,-7.4236,-7.4271,-7.4339,-7.4427,-7.4496,-7.4572,-7.4596,-7.4656,-7.4672,-7.4764,-7.4724,-7.4851,-7.4798,-7.4842,-7.4871,-7.4876,-7.4886,-7.484,-7.492,-7.506,-7.5076,-7.4897,-7.4895,-7.4893,0,-7.3979,-7.4121,-7.4227,-7.4268,-7.4373,-7.4421,-7.4466,-7.454,-7.4593,-7.4669,-7.4704,-7.4789,-7.4835,-7.4899,-7.4938,-7.4906,-7.5063,-7.5025,-7.5085,-7.5084,-7.5116,-7.5113,-7.5265,-7.5144,-7.5144,-7.5144,-7.5143,0,-7.4091,-7.4179,-7.4254,-7.4319,-7.4419,-7.4463,-7.456,-7.4606,-7.4672,-7.4745,-7.4764,-7.4833,-7.488,-7.4955,-7.4986,-7.5088,-7.5107,-7.513,-7.5137,-7.5128,-7.5125,-7.5157,-7.515,-7.5148,-7.5147,-7.5146,-7.5146,0,-7.4168,-7.4222,-7.434,-7.4432,-7.4458,-7.4528,-7.4606,-7.467,-7.4712,-7.4805,-7.4829,-7.4894,-7.4983,-7.503,-7.514,-7.5161,-7.5275,-7.5277,-7.5251,-7.5254,-7.5312,-7.5306,-7.5489,-7.5515,-7.5376,-7.5378,-7.5379,0,-7.4236,-7.4305,-7.4408,-7.4461,-7.4509,-7.4593,-7.4649,-7.4696,-7.4753,-7.4848,-7.49,-7.4992,-7.5068,-7.521,-7.5265,-7.5351,-7.5355,-7.5414,-7.5368,-7.5358,-7.5358,-7.5353,-7.5361,-7.5421,-7.5423,-7.5424,-7.5424,0,-7.4351,-7.4376,-7.4458,-7.4551,-7.4619,-7.4693,-7.4766,-7.4808,-7.4866,-7.493,-7.5025,-7.5084,-7.52,-7.5291,-7.5382,-7.5427,-7.5436,-7.5439,-7.5458,-7.5449,-7.5432,-7.5444,-7.5274,-7.5434,-7.5433,-7.5432,-7.5432,-7.5432,-7.4427,-7.4491,-7.4574,-7.4666,-7.4727,-7.4797,-7.4863,-7.4916,-7.4996,-7.5097,-7.5119,-7.522,-7.5296,-7.542,-7.5469,-7.5547,-7.5534,-7.556,-7.5567,-7.5573,-7.5577,-7.542,-7.5563,-7.5563,-7.5563,-7.5563,-7.5562,0,-7.4544,-7.46,-7.4684,-7.4789,-7.4862,-7.4869,-7.4952,-7.5011,-7.5101,-7.5173,-7.525,-7.536,-7.545,-7.5514,-7.5606,-7.5656,-7.5663,-7.5678,-7.5675,-7.5686,-7.5582,-7.5557,-7.5672,-7.5672,-7.5672,-7.5672,-7.5672,-7.5672,-7.4613,-7.4723,-7.4759,-7.49,-7.4954,-7.5056,-7.5103,-7.5168,-7.5227,-7.535,-7.5427,-7.547,-7.554,-7.5638,-7.572,-7.5737,-7.577,-7.5786,-7.5803,-7.5704,-7.5692,-7.5681,-7.5659,-7.5793,-7.5793,-7.59,-7.5901,-7.5902]}]]